FW7399 Weather Reports


Display with metric or nautical units.
time (UTC)temp
F
wind
direction
speed
MPH
gust
MPH
rain 1hr
in
rain 24hr
in
rain mn
in
humidity
%
barometer
mb
20260502170403 56 253 13.0 16.0 0.00 0.00 0.00 43 1020.4
20260502163903 55 287 9.0 16.0 0.00 0.00 0.00 42 1020.4
20260502163403 55 258 7.0 15.0 0.00 0.00 0.00 42 1020.5
20260502162903 55 232 9.0 16.0 0.00 0.00 0.00 43 1020.4
20260502162403 55 260 9.0 18.0 0.00 0.00 0.00 43 1020.5
20260502161903 54 243 7.0 16.0 0.00 0.00 0.00 42 1020.6
20260502160903 54 253 9.0 14.0 0.00 0.00 0.00 44 1020.7
20260502160403 54 259 10.0 14.0 0.00 0.00 0.00 43 1020.8
20260502151903 52 252 12.0 18.0 0.00 0.00 0.00 48 1021.2
20260502150403 51 260 11.0 16.0 0.00 0.00 0.00 49 1021.2
20260502130403 42 257 7.0 10.0 0.00 0.00 0.00 69 1021.6
20260502123403 38 273 5.0 7.0 0.00 0.00 0.00 73 1021.9
20260502122904 37 273 5.0 7.0 0.00 0.00 0.00 75 1021.8
20260502122403 36 265 4.0 7.0 0.00 0.00 0.00 77 1021.9
20260502121903 35 262 5.0 7.0 0.00 0.00 0.00 79 1021.9
20260502121404 34 262 5.0 7.0 0.00 0.00 0.00 80 1022.0
20260502120403 33 253 6.0 7.0 0.00 0.00 0.00 79 1021.9
20260502115903 34 253 5.0 7.0 0.00 0.00 0.00 78 1021.8
20260502115404 33 253 6.0 8.0 0.00 0.00 0.00 78 1021.8
20260502114904 33 253 5.0 7.0 0.00 0.00 0.00 77 1021.8
20260502114403 33 253 5.0 5.0 0.00 0.00 0.00 77 1021.8
20260502113904 33 253 5.0 7.0 0.00 0.00 0.00 77 1021.8
20260502113403 32 253 5.0 7.0 0.00 0.00 0.00 79 1021.7
20260502112903 32 253 5.0 7.0 0.00 0.00 0.00 79 1021.7
20260502112403 32 253 5.0 8.0 0.00 0.00 0.00 79 1021.6
20260502111904 32 258 5.0 7.0 0.00 0.00 0.00 79 1021.7
20260502111404 32 248 6.0 7.0 0.00 0.00 0.00 78 1021.6
20260502110903 32 250 6.0 7.0 0.00 0.00 0.00 79 1021.7
20260502110403 31 243 6.0 6.0 0.00 0.00 0.00 80 1021.6
20260502105903 32 243 6.0 8.0 0.00 0.00 0.00 79 1021.6
20260502105404 32 243 6.0 8.0 0.00 0.00 0.00 78 1021.6
20260502104904 32 243 6.0 6.0 0.00 0.00 0.00 79 1021.6
20260502104403 32 243 6.0 6.0 0.00 0.00 0.00 78 1021.7
20260502103903 33 243 6.0 6.0 0.00 0.00 0.00 79 1021.6
20260502103403 33 243 6.0 6.0 0.00 0.00 0.00 78 1021.7
20260502102903 33 243 5.0 6.0 0.00 0.00 0.00 78 1021.7
20260502102404 33 243 5.0 6.0 0.00 0.00 0.00 77 1021.7
20260502101404 34 243 5.0 5.0 0.00 0.00 0.00 77 1021.6
20260502100903 34 243 5.0 5.0 0.00 0.00 0.00 78 1021.6
20260502100403 33 243 4.0 5.0 0.00 0.00 0.00 78 1021.6
20260502091403 33 243 5.0 6.0 0.00 0.00 0.00 77 1021.5
20260502090903 34 243 5.0 6.0 0.00 0.00 0.00 76 1021.5
20260502090403 34 243 5.0 6.0 0.00 0.00 0.00 76 1021.4
20260502071403 36 243 3.0 3.0 0.00 0.00 0.00 76 1021.5
20260502070903 35 243 3.0 5.0 0.00 0.00 0.00 76 1021.5
20260502070403 35 243 5.0 6.0 0.00 0.00 0.00 75 1021.5
20260502065403 36 243 5.0 6.0 0.00 0.00 0.00 74 1021.6
20260502064903 36 243 5.0 5.0 0.00 0.00 0.00 76 1021.6
20260502064404 35 243 5.0 6.0 0.00 0.00 0.00 74 1021.6
20260502063903 37 243 6.0 6.0 0.00 0.00 0.00 73 1021.6
20260502063404 37 342 3.0 3.0 0.00 0.00 0.00 74 1021.5
20260502062403 37 342 3.0 3.0 0.00 0.00 0.00 73 1021.5
20260502061403 37 342 3.0 5.0 0.00 0.00 0.00 72 1021.4
20260502060903 37 342 5.0 6.0 0.00 0.00 0.00 72 1021.4
20260502060403 37 342 5.0 5.0 0.00 0.00 0.00 71 1021.5
20260502055404 38 342 2.0 3.0 0.00 0.00 0.00 70 1021.5
20260502054404 40 342 3.0 3.0 0.00 0.00 0.00 65 1021.6
20260502053903 40 342 3.0 3.0 0.00 0.00 0.00 66 1021.6
20260502052904 39 342 2.0 3.0 0.00 0.00 0.00 68 1021.6
20260502052404 39 342 3.0 3.0 0.00 0.00 0.00 67 1021.6
20260502051403 40 342 3.0 3.0 0.00 0.00 0.00 67 1021.6
20260502045903 38 342 3.0 3.0 0.00 0.00 0.00 69 1021.5
20260502045404 38 342 3.0 3.0 0.00 0.00 0.00 68 1021.3
20260502044904 39 342 3.0 3.0 0.00 0.00 0.00 68 1021.3
20260502043904 39 342 2.0 3.0 0.00 0.00 0.00 66 1021.2
20260502043404 40 342 2.0 3.0 0.00 0.00 0.00 65 1021.2
20260502042904 41 342 2.0 3.0 0.00 0.00 0.00 63 1021.2
20260502041903 41 342 2.0 2.0 0.00 0.00 0.00 63 1021.3
20260502041404 41 342 1.0 2.0 0.00 0.00 0.00 64 1021.3
20260502040903 41 342 1.0 2.0 0.00 0.00 0.00 64 1021.2
20260502040404 41 342 1.0 2.0 0.00 0.00 0.00 64 1021.2
20260502035904 40 342 1.0 2.0 0.00 0.00 0.00 64 1021.2
20260502034403 41 342 3.0 3.0 0.00 0.00 0.00 64 1021.5
20260502033903 40 342 3.0 3.0 0.00 0.00 0.00 64 1021.5
20260502033403 40 342 2.0 3.0 0.00 0.00 0.00 64 1021.5
20260502032904 40 342 2.0 3.0 0.00 0.00 0.00 64 1021.6
20260502032404 41 342 2.0 3.0 0.00 0.00 0.00 63 1021.5
20260502031904 41 342 5.0 8.0 0.00 0.00 0.00 64 1021.5
20260502031404 41 342 2.0 3.0 0.00 0.00 0.00 63 1021.5
20260502030904 41 342 5.0 6.0 0.00 0.00 0.00 62 1021.4
20260502030403 41 342 6.0 8.0 0.00 0.00 0.00 61 1021.4
20260502025903 41 347 6.0 8.0 0.00 0.00 0.00 61 1021.4
20260502025403 42 355 6.0 8.0 0.00 0.00 0.00 61 1021.2
20260502024904 42 355 5.0 6.0 0.00 0.00 0.00 60 1021.3
20260502024404 43 355 6.0 6.0 0.00 0.00 0.00 59 1021.2
20260502023904 43 355 4.0 5.0 0.00 0.00 0.00 58 1021.2
20260502023404 44 355 3.0 5.0 0.00 0.00 0.00 58 1021.1
20260502022904 44 355 3.0 5.0 0.00 0.00 0.00 57 1021.1
20260502022404 44 355 4.0 6.0 0.00 0.00 0.00 57 1021.0
20260502021904 44 341 5.0 6.0 0.00 0.00 0.00 57 1021.0
20260502021404 45 341 6.0 8.0 0.00 0.00 0.00 56 1020.9
20260502020904 45 341 5.0 6.0 0.00 0.00 0.00 55 1020.8
20260502020404 46 350 6.0 9.0 0.00 0.00 0.00 54 1020.8
20260502015403 46 1 5.0 8.0 0.00 0.00 0.00 54 1020.8
20260502014903 46 1 6.0 8.0 0.00 0.00 0.00 53 1020.8
20260502014404 46 355 5.0 8.0 0.00 0.00 0.00 54 1020.8
20260502013904 46 355 5.0 8.0 0.00 0.00 0.00 53 1020.7
20260502012903 47 355 5.0 7.0 0.00 0.00 0.00 53 1020.6
20260502012404 47 352 4.0 6.0 0.00 0.00 0.00 52 1020.6
20260502011904 47 19 3.0 8.0 0.00 0.00 0.00 52 1020.6
20260502011404 47 0 7.0 12.0 0.00 0.00 0.00 53 1020.6
20260502010904 47 340 5.0 8.0 0.00 0.00 0.00 52 1020.5
20260502010404 48 340 6.0 9.0 0.00 0.00 0.00 51 1020.4
20260502005403 49 342 9.0 12.0 0.00 0.00 0.00 50 1020.3
20260502004903 49 336 10.0 13.0 0.00 0.00 0.00 50 1020.3
20260502004404 49 343 11.0 14.0 0.00 0.00 0.00 49 1020.2
20260502003903 49 341 12.0 16.0 0.00 0.00 0.00 48 1020.2
20260502003404 49 342 13.0 16.0 0.00 0.00 0.00 48 1020.2
20260502002903 49 352 11.0 14.0 0.00 0.00 0.00 46 1020.2
20260502002403 50 349 9.0 12.0 0.00 0.00 0.00 45 1020.2
20260502001903 50 357 9.0 13.0 0.00 0.00 0.00 44 1020.2
20260502001403 50 14 10.0 14.0 0.00 0.00 0.00 44 1020.2
20260502000903 51 13 11.0 15.0 0.00 0.00 0.00 45 1020.1
20260502000404 51 349 10.0 14.0 0.00 0.00 0.00 45 1020.1
20260501235904 51 6 8.0 16.0 0.00 0.00 0.00 45 1020.1
20260501235404 51 0 10.0 16.0 0.00 0.00 0.00 45 1020.1
20260501234903 51 21 10.0 15.0 0.00 0.00 0.00 44 1020.1
20260501234404 51 0 11.0 16.0 0.00 0.00 0.00 44 1020.1
20260501233403 51 302 12.0 17.0 0.00 0.00 0.00 45 1020.0
20260501232904 52 1 10.0 13.0 0.00 0.00 0.00 46 1020.0
20260501232403 52 300 11.0 15.0 0.00 0.00 0.00 45 1020.0
20260501231903 51 338 12.0 16.0 0.00 0.00 0.00 46 1019.9
20260501231404 51 295 9.0 16.0 0.00 0.00 0.00 44 1019.9
20260501230904 51 339 11.0 15.0 0.00 0.00 0.00 45 1019.9
20260501230403 51 329 10.0 14.0 0.00 0.00 0.00 47 1019.8
20260501225904 51 334 13.0 17.0 0.00 0.00 0.00 46 1019.9
20260501225403 51 358 12.0 18.0 0.00 0.00 0.00 46 1019.8
20260501224903 51 345 11.0 15.0 0.00 0.00 0.00 49 1019.9
20260501224403 49 18 8.0 14.0 0.00 0.00 0.00 49 1019.9
20260501223903 49 17 8.0 13.0 0.00 0.00 0.00 49 1019.9
20260501223403 49 5 8.0 13.0 0.00 0.00 0.00 49 1019.9
20260501222403 50 17 10.0 14.0 0.00 0.00 0.00 49 1019.9
20260501221903 50 21 8.0 12.0 0.00 0.00 0.00 48 1019.9
20260501221404 50 5 7.0 16.0 0.00 0.00 0.00 48 1020.0
20260501220903 50 344 8.0 12.0 0.00 0.00 0.00 49 1019.9
20260501220404 49 345 13.0 16.0 0.00 0.00 0.00 49 1019.9
20260501215903 50 354 13.0 18.0 0.00 0.00 0.00 49 1019.9
20260501214904 51 14 9.0 16.0 0.00 0.00 0.00 49 1019.7
20260501214403 50 15 9.0 14.0 0.00 0.00 0.00 50 1019.8
20260501213404 50 356 10.0 16.0 0.00 0.00 0.00 49 1019.8
20260501212403 50 353 11.0 15.0 0.00 0.00 0.00 48 1019.9
20260501211903 50 345 12.0 18.0 0.00 0.00 0.00 50 1019.8
20260501211404 50 343 12.0 17.0 0.00 0.00 0.00 49 1019.9
20260501210904 50 83 3.0 12.0 0.00 0.00 0.00 50 1019.8
20260501210403 49 37 7.0 15.0 0.00 0.00 0.00 50 1019.9
20260501205904 50 22 9.0 13.0 0.00 0.00 0.00 50 1019.9
20260501205403 50 8 10.0 17.0 0.00 0.00 0.00 47 1020.0
20260501204904 50 14 9.0 15.0 0.00 0.00 0.00 50 1019.9
20260501204403 50 346 10.0 16.0 0.00 0.00 0.00 51 1020.0
20260501203904 50 346 9.0 13.0 0.00 0.00 0.00 49 1020.0
20260501203403 50 358 9.0 13.0 0.00 0.00 0.00 50 1020.0
20260501202904 50 327 6.0 12.0 0.00 0.00 0.00 49 1020.1
20260501201904 49 0 7.0 12.0 0.00 0.00 0.00 49 1020.2
20260501201403 50 353 10.0 15.0 0.00 0.00 0.00 51 1020.3
20260501195903 50 354 9.0 16.0 0.00 0.00 0.00 50 1020.2
20260501195404 50 13 12.0 17.0 0.00 0.00 0.00 49 1020.3
20260501194904 50 313 9.0 12.0 0.00 0.00 0.00 50 1020.2
20260501194403 50 2 10.0 16.0 0.00 0.00 0.00 49 1020.2
20260501193903 50 324 13.0 17.0 0.00 0.00 0.00 55 1020.2
20260501193404 49 354 13.0 18.0 0.00 0.00 0.00 52 1020.1
20260501192903 49 325 7.0 20.0 0.00 0.00 0.00 50 1020.1
20260501192403 50 323 13.0 17.0 0.00 0.00 0.00 51 1020.3
20260501191903 50 316 14.0 20.0 0.00 0.00 0.00 51 1020.3
20260501191404 50 11 3.0 18.0 0.00 0.00 0.00 54 1020.2
20260501190903 51 339 12.0 20.0 0.00 0.00 0.00 54 1020.2
20260501190404 50 327 13.0 20.0 0.00 0.00 0.00 53 1020.1
20260501185903 50 312 11.0 21.0 0.00 0.00 0.00 53 1020.2
20260501185403 50 325 11.0 20.0 0.00 0.00 0.00 51 1020.2
20260501184903 49 312 12.0 16.0 0.00 0.00 0.00 54 1020.1
20260501184404 49 354 8.0 14.0 0.00 0.00 0.00 54 1020.1
20260501183403 49 327 10.0 20.0 0.00 0.00 0.00 53 1020.1
20260501182403 48 334 13.0 16.0 0.00 0.00 0.00 55 1020.1
20260501181903 47 342 10.0 16.0 0.00 0.00 0.00 56 1020.1
20260501181404 47 335 9.0 13.0 0.00 0.00 0.00 58 1020.1
20260501180904 46 335 11.0 16.0 0.00 0.00 0.00 58 1020.2
20260501180403 46 349 9.0 17.0 0.00 0.00 0.00 59 1020.2
20260501175904 46 346 10.0 15.0 0.00 0.00 0.00 59 1020.2
20260501175403 46 347 9.0 12.0 0.00 0.00 0.00 59 1020.2
20260501174904 46 356 10.0 13.0 0.00 0.00 0.00 59 1020.3
20260501174403 46 7 9.0 13.0 0.00 0.00 0.00 59 1020.2
20260501173904 46 4 11.0 15.0 0.00 0.00 0.00 60 1020.2
20260501173403 46 17 9.0 15.0 0.00 0.00 0.00 61 1020.2
20260501172904 46 334 12.0 16.0 0.00 0.00 0.00 60 1020.3
20260501172403 46 342 13.0 17.0 0.00 0.00 0.00 60 1020.2
20260501171904 46 336 11.0 17.0 0.00 0.00 0.00 61 1020.2